Weather History for LGAV - October, 2013

Change the Weather History Date:

Thursday, October 24, 2013

  Actual Average (LGEL) Record (LGEL)
Temperature  
Mean Temperature 68 °F -  
Max Temperature 73 °F 70 °F 84 °F (2003)
Min Temperature 62 °F 55 °F 48 °F (2000)
Cooling Degree Days 2    
Growing Degree Days 18 (Base 50)    
Moisture  
Dew Point 46 °F    
Average Humidity 45    
Maximum Humidity 59    
Minimum Humidity 31    
Precipitation  
Precipitation 0.00 in - - ()
Sea Level Pressure  
Sea Level Pressure 30.19 in    
Wind  
Wind Speed 14 mph ()    
Max Wind Speed 26 mph    
Max Gust Speed 25 mph    
Averages and records for this station are not official NWS values.
T = Trace of Precipitation, MM = Missing Value Source: Averaged Metar Reports

Daily Weather History Graph

Daily Weather History Graph

Search for Another Location

Airport or City:

Trip Planner

Search our weather history database for the weather conditions in past years. The results will help you decide how hot, cold, wet, or windy it might be!

Date:

Astronomy

Oct. 24, 2013 Rise Set
Actual Time 7:41 AM EEST 6:34 PM EEST
Civil Twilight 7:14 AM EEST 7:01 PM EEST
Nautical Twilight 6:43 AM EEST 7:32 PM EEST
Astronomical Twilight 6:13 AM EEST 8:02 PM EEST
Moon 10:44 PM EEST (10/24) 12:26 PM EEST (10/24)
Length of Visible Light 11h 46m
Length of Day
10h 53m
Waning Gibbous, 74% of the Moon is Illuminated
Oct 24
Waning Gibbous
Oct 27
Last Quarter
Nov 3
New
Nov 10
First Quarter
Nov 17
Full

Hourly Weather History & Observations

Time (EEST) Temp. Dew Point Humidity Pressure Visibility Wind Dir Wind Speed Gust Speed Precip Events Conditions
12:20 AM 68.0 °F 50.0 °F 52% 30.21 in - NNE 10.4 mph - N/A   Clear
12:50 AM 66.2 °F 48.2 °F 52% 30.21 in - NNE 11.5 mph - N/A   Clear
1:20 AM 66.2 °F 48.2 °F 52% 30.21 in - NNE 11.5 mph - N/A   Clear
1:50 AM 66.2 °F 48.2 °F 52% 30.21 in - NE 15.0 mph - N/A   Clear
2:20 AM 68.0 °F 46.4 °F 46% 30.21 in - NNE 12.7 mph - N/A   Clear
2:50 AM 68.0 °F 46.4 °F 46% 30.21 in - NNE 13.8 mph - N/A   Clear
3:20 AM 66.2 °F 46.4 °F 49% 30.18 in - NNE 15.0 mph - N/A   Clear
3:50 AM 68.0 °F 46.4 °F 46% 30.18 in - North 13.8 mph - N/A   Clear
4:20 AM 68.0 °F 46.4 °F 46% 30.18 in - North 13.8 mph - N/A   Clear
4:50 AM 66.2 °F 46.4 °F 49% 30.18 in - North 15.0 mph - N/A   Clear
5:20 AM 66.2 °F 44.6 °F 46% 30.18 in - North 16.1 mph - N/A   Clear
5:50 AM 66.2 °F 46.4 °F 49% 30.18 in - NNE 12.7 mph 25.3 mph N/A   Clear
6:20 AM 66.2 °F 46.4 °F 49% 30.18 in - North 13.8 mph - N/A   Clear
6:50 AM 66.2 °F 48.2 °F 52% 30.18 in - North 12.7 mph - N/A   Clear
7:20 AM 66.2 °F 48.2 °F 52% 30.18 in - North 10.4 mph - N/A   Clear
7:50 AM 64.4 °F 50.0 °F 59% 30.21 in - North 12.7 mph - N/A   Clear
8:20 AM 64.4 °F 50.0 °F 59% 30.21 in - NNE 9.2 mph - N/A   Clear
8:50 AM 66.2 °F 50.0 °F 56% 30.21 in - NNE 8.1 mph - N/A   Clear
9:20 AM 68.0 °F 48.2 °F 49% 30.21 in - NNE 12.7 mph - N/A   Clear
9:50 AM 69.8 °F 48.2 °F 46% 30.21 in - NNE 16.1 mph - N/A   Clear
10:20 AM 69.8 °F 48.2 °F 46% 30.21 in - NNE 19.6 mph - N/A   Clear
10:50 AM 71.6 °F 48.2 °F 43% 30.21 in - NNE 20.7 mph - N/A   Clear
11:20 AM 71.6 °F 50.0 °F 46% 30.21 in - NNE 18.4 mph - N/A   Clear
11:50 AM 71.6 °F 50.0 °F 46% 30.21 in - NE 23.0 mph - N/A   Clear
12:20 PM 73.4 °F 48.2 °F 41% 30.21 in - NE 21.9 mph - N/A   Clear
12:50 PM 73.4 °F 48.2 °F 41% 30.21 in - NNE 25.3 mph - N/A   Clear
1:20 PM 73.4 °F 44.6 °F 36% 30.21 in - NE 25.3 mph - N/A   Clear
1:50 PM 73.4 °F 44.6 °F 36% 30.21 in - NE 24.2 mph - N/A   Clear
2:20 PM 73.4 °F 46.4 °F 38% 30.18 in - NE 25.3 mph - N/A   Clear
2:50 PM 73.4 °F 41.0 °F 31% 30.18 in - NE 26.5 mph - N/A   Clear
3:20 PM 73.4 °F 41.0 °F 31% 30.18 in - NE 21.9 mph - N/A   Clear
3:50 PM 73.4 °F 44.6 °F 36% 30.18 in - NE 19.6 mph - N/A   Clear
4:20 PM 71.6 °F 42.8 °F 35% 30.18 in - NE 23.0 mph - N/A   Clear
4:50 PM 71.6 °F 42.8 °F 35% 30.18 in - NE 20.7 mph - N/A   Clear
5:20 PM 71.6 °F 42.8 °F 35% 30.18 in - NE 19.6 mph - N/A   Clear
5:50 PM 69.8 °F 41.0 °F 35% 30.18 in - NNE 15.0 mph - N/A   Clear
6:20 PM 68.0 °F 44.6 °F 43% 30.18 in - NNE 18.4 mph - N/A   Clear
6:50 PM 66.2 °F 42.8 °F 43% 30.18 in - NNE 13.8 mph - N/A   Clear
7:20 PM 66.2 °F 42.8 °F 43% 30.18 in - NNE 13.8 mph - N/A   Clear
7:50 PM 64.4 °F 42.8 °F 45% 30.18 in - NE 16.1 mph - N/A   Clear
8:20 PM 64.4 °F 42.8 °F 45% 30.18 in - NE 16.1 mph - N/A   Clear
8:50 PM 64.4 °F 44.6 °F 49% 30.18 in - NE 18.4 mph - N/A   Clear
9:20 PM 64.4 °F 41.0 °F 42% 30.18 in - NNE 18.4 mph - N/A   Clear
9:50 PM 64.4 °F 39.2 °F 40% 30.18 in - NNE 16.1 mph - N/A   Clear
10:20 PM 62.6 °F 41.0 °F 45% 30.18 in - NE 18.4 mph - N/A   Clear
10:50 PM 62.6 °F 42.8 °F 48% 30.18 in - NE 18.4 mph - N/A   Clear
11:20 PM 62.6 °F 44.6 °F 52% 30.18 in - NE 19.6 mph - N/A   Clear
11:50 PM 62.6 °F 46.4 °F 55% 30.18 in - NE 21.9 mph - N/A   Clear